Wind_Speed
37 37 37 37 36 37 38 37 38 37 37 36 37 37 38 38 38 38 39 39 40 39 39 39 39 40 40 41 42 42 43 43 43 43 44 44 44 43 44 45 46 45 44 45
39 39 40 40 39 39 39 39 40 40 39 38 40 41 41 41 40 40 41 41 41 41 41 41 41 41 42 43 44 44 44 44 45 45 45 45 45 45 45 45 46 46 46 46
42 40 41 41 39 39 40 40 41 41 39 39 41 42 43 43 43 43 43 43 43 43 43 43 43 43 43 44 45 46 46 46 46 47 46 46 46 46 46 46 46 47 47 48
43 42 43 40 39 39 40 40 40 41 40 40 42 43 44 45 45 45 45 45 44 44 44 45 45 44 44 45 46 47 47 48 48 48 47 47 47 47 46 47 47 47 47 48
43 43 43 41 39 39 40 40 40 41 41 42 43 44 45 45 45 45 45 44 45 45 45 46 46 46 46 46 47 47 48 48 49 49 49 49 49 49 48 48 48 48 48 49
42 42 43 41 41 42 42 42 42 42 42 42 43 44 44 45 45 45 44 45 45 45 46 46 46 47 47 47 47 47 48 48 49 50 50 50 50 50 50 50 49 50 49 49
41 42 43 42 43 42 42 42 41 42 42 42 43 44 44 45 45 45 45 45 45 46 46 46 46 47 47 47 47 48 48 48 49 50 51 51 51 50 51 51 51 51 51 51
41 42 42 41 42 41 41 41 41 41 41 42 43 43 44 44 45 45 45 45 46 46 46 46 46 47 47 47 47 47 48 48 49 49 50 50 50 51 51 51 52 52 53 53
41 41 41 40 40 40 40 41 41 42 42 43 43 44 44 45 45 45 45 46 46 46 46 46 46 46 46 47 47 48 48 48 48 48 49 49 50 51 52 52 52 53 53 54
39 39 40 40 39 39 40 42 42 42 42 42 43 43 43 44 44 44 44 45 45 46 46 46 46 47 47 47 48 48 48 48 48 47 47 48 49 50 51 52 52 53 53 53
38 37 38 38 39 40 40 41 41 41 41 41 42 42 42 42 43 43 43 43 44 44 44 44 45 46 47 47 48 48 47 47 47 47 47 47 48 49 49 50 51 51 51 52
36 35 36 36 37 38 39 40 40 40 40 40 41 41 41 42 42 42 43 43 43 43 43 44 44 45 45 46 46 46 46 46 46 46 47 47 47 47 48 48 48 49 51 51
36 36 37 37 37 37 38 38 38 39 40 40 41 41 42 42 43 42 43 43 42 42 43 43 43 43 43 43 43 44 44 43 44 44 45 46 47 47 47 47 47 47 48 50
36 36 37 37 37 37 37 37 38 38 39 40 41 41 42 42 42 42 42 42 42 42 42 42 41 41 41 41 41 41 42 42 43 44 44 45 46 46 46 46 46 46 47 47
34 35 36 36 37 37 38 39 39 39 39 40 40 41 41 41 41 41 41 41 41 40 40 40 40 39 39 39 39 40 41 41 42 42 43 43 44 44 45 45 45 44 44 45
32 33 34 35 36 36 37 38 39 40 40 40 40 40 40 40 40 40 40 40 40 39 39 39 38 38 38 38 38 39 39 39 39 40 41 41 41 42 42 43 43 43 43 43
30 31 32 33 34 35 36 37 38 38 38 38 38 39 38 38 38 39 39 39 39 38 38 38 38 38 38 38 38 38 38 38 38 39 39 39 39 40 40 40 41 41 41 41
30 30 31 31 32 33 34 34 35 36 36 36 37 37 37 37 37 38 38 38 38 37 37 37 37 37 38 37 38 37 37 37 38 38 38 38 38 38 38 38 38 38 38 39
30 30 31 31 31 31 31 31 32 33 33 33 33 34 34 34 35 35 36 36 36 35 35 36 37 37 38 38 39 38 38 37 36 36 36 36 36 37 37 37 37 37 37 37
30 30 30 30 29 29 29 29 30 30 30 31 31 31 31 31 32 32 33 33 34 35 35 36 36 37 37 37 37 37 37 36 35 35 35 34 34 34 35 35 35 35 35 35
28 28 28 28 28 28 28 28 28 29 28 29 29 28 29 29 30 31 32 32 32 34 34 35 36 36 36 36 36 35 35 35 35 34 34 33 33 33 34 34 33 33 33 33
26 27 27 28 27 27 27 28 29 29 29 29 29 29 29 29 29 30 30 30 30 31 32 32 33 33 33 33 33 33 33 33 33 33 33 32 32 32 32 32 31 31 31 31
26 27 27 27 27 26 27 28 28 29 29 28 28 28 28 28 28 28 28 27 28 28 29 29 30 30 30 30 30 30 30 30 31 31 31 31 31 30 30 29 29 29 29 29
26 26 26 26 26 26 26 26 27 27 27 27 26 26 27 27 26 26 26 26 26 27 27 27 26 27 27 27 27 27 27 28 28 28 29 29 28 28 28 28 28 27 27 27
25 25 25 25 25 26 26 26 26 25 25 24 24 24 25 25 25 25 25 25 25 26 25 25 25 25 25 25 24 25 25 25 25 25 25 26 26 26 25 25 25 25 25 24
24 24 24 24 25 25 24 24 23 23 23 22 22 23 23 23 23 23 22 23 23 23 23 23 23 23 22 22 22 22 22 22 22 22 22 22 22 22 22 23 22 22 22 21
22 23 23 23 23 23 22 22 21 21 21 21 20 21 21 21 20 20 20 20 21 21 21 21 20 20 20 20 21 20 20 19 19 18 19 19 19 19 19 19 19 19 18 18
Wind_Direction
263 263 262 261 260 260 260 261 263 263 263 262 263 262 262 262 263 263 264 264 264 263 263 263 263 263 263 262 262 262 263 263 264 264 265 265 265 265 264 264 263 263 264 263
263 263 263 262 261 261 261 262 263 263 263 264 263 262 262 262 263 264 263 263 263 263 263 263 263 263 263 263 263 263 263 263 263 264 265 265 265 265 265 264 263 263 263 264
264 263 263 262 262 262 262 263 264 264 265 264 263 263 263 263 264 264 263 262 262 262 262 263 264 265 265 265 265 264 264 263 264 264 264 264 264 264 264 264 263 263 264 264
263 262 261 263 262 261 262 263 264 265 265 265 263 262 263 264 264 265 263 262 262 262 263 263 264 266 266 266 266 266 264 264 264 264 264 264 264 264 264 264 263 264 264 264
263 263 263 262 262 263 263 263 264 266 265 265 264 263 263 264 265 264 263 262 262 262 263 264 265 266 267 267 267 266 265 264 264 263 263 264 265 264 265 264 264 264 265 265
261 263 265 265 265 266 266 265 265 265 265 265 265 264 263 264 264 264 263 262 263 264 264 265 266 267 268 268 267 266 266 265 264 263 263 265 265 265 265 264 265 265 266 266
260 262 264 265 266 267 267 267 266 266 266 265 265 264 264 263 263 263 263 263 264 265 265 266 267 268 268 268 268 267 266 266 266 265 265 265 266 266 266 265 266 266 267 268
260 261 262 263 264 265 267 267 267 267 266 266 265 265 264 263 263 263 264 264 265 265 266 267 268 269 269 269 269 268 267 267 267 266 266 266 267 267 267 266 267 267 267 268
262 262 262 262 264 265 266 267 268 268 268 268 268 267 266 264 264 264 264 265 265 266 267 268 269 269 270 270 269 269 268 268 268 267 267 266 266 267 268 268 268 267 268 268
260 261 262 263 264 265 265 267 268 269 269 269 268 267 267 266 264 264 265 265 266 267 268 269 270 270 271 271 271 270 269 268 268 267 267 267 266 267 267 268 268 268 268 269
259 261 261 261 263 264 265 266 267 268 269 269 269 268 267 266 265 265 266 267 267 268 269 270 270 271 272 272 271 270 269 268 267 267 267 267 267 267 268 268 268 268 268 269
259 260 261 261 262 264 265 267 267 268 269 268 267 267 267 267 267 267 268 268 268 268 269 270 271 272 272 272 271 270 269 267 267 267 267 267 267 268 268 269 269 269 269 268
258 258 260 261 263 264 265 266 267 269 269 269 269 268 268 268 268 268 269 269 269 270 271 271 272 273 273 272 271 270 268 267 266 266 267 268 268 269 269 269 269 270 269 269
259 260 261 262 262 263 265 266 268 269 270 271 270 270 269 269 268 267 268 269 269 271 271 271 272 272 272 271 270 269 268 267 266 266 267 269 270 271 271 270 270 270 270 269
261 261 263 263 264 265 266 267 268 270 271 272 272 271 269 269 267 266 267 268 269 270 270 271 271 270 270 270 270 269 269 268 268 268 268 269 271 271 271 271 271 271 270 269
264 264 265 266 266 267 268 269 270 271 272 272 272 271 270 269 267 266 266 267 267 268 269 269 270 270 270 270 270 270 269 270 270 270 270 271 271 271 271 271 272 272 271 270
265 267 267 268 268 269 270 271 272 272 273 273 272 271 270 269 267 265 265 265 266 267 269 269 270 270 271 271 272 272 271 271 271 272 273 273 272 272 272 273 272 272 271 270
267 269 271 272 272 272 273 273 273 273 274 274 272 271 270 269 267 265 264 265 265 267 268 269 270 271 272 273 274 274 274 273 273 274 274 273 272 272 273 273 273 272 271 270
270 272 274 274 275 275 275 275 275 274 274 274 273 272 272 271 269 266 264 264 265 266 267 268 270 271 272 274 275 275 275 274 274 274 274 274 273 273 274 274 273 272 271 270
271 273 274 275 274 274 276 277 276 276 276 276 275 273 273 272 270 268 266 265 266 267 267 268 269 271 273 274 275 276 276 275 275 275 275 275 275 274 275 275 274 273 272 270
273 274 275 275 275 275 276 277 277 276 277 276 276 275 274 273 272 271 269 268 268 268 269 270 272 273 274 275 276 276 275 275 274 275 275 275 275 275 275 275 274 273 272 271
275 275 276 277 277 276 277 278 279 278 277 278 278 277 276 275 274 273 272 272 270 270 272 273 274 274 275 275 276 276 275 275 274 274 274 275 275 275 275 274 274 273 273 272
278 278 278 278 278 278 278 279 279 279 278 278 278 277 277 277 276 275 273 272 273 273 275 275 275 275 275 275 275 275 275 274 274 274 275 275 275 274 274 274 274 274 274 273
280 280 281 281 281 281 281 281 281 280 279 278 278 278 277 277 276 275 274 273 273 274 275 275 275 275 276 275 275 275 275 275 275 274 274 275 275 274 273 273 274 274 274 274
283 283 283 283 283 283 282 281 279 278 279 279 279 279 279 278 276 275 274 274 274 275 275 275 276 276 275 275 275 275 276 276 275 275 275 275 276 275 274 274 274 274 274 274
284 283 283 283 284 284 282 280 278 278 278 279 279 279 279 278 277 276 275 275 275 275 276 277 277 276 275 274 275 276 277 277 277 276 276 276 276 276 275 275 274 275 275 273
285 284 283 284 285 285 283 280 279 279 280 281 282 281 280 279 279 278 278 278 277 276 277 277 277 276 274 274 274 276 277 277 276 276 276 276 276 277 277 276 275 274 273 270
Height
5611 5611 5612 5613 5614 5614 5614 5615 5615 5618 5618 5620 5619 5620 5620 5621 5622 5623 5624 5625 5625 5625 5626 5626 5626 5627 5627 5627 5627 5628 5628 5629 5629 5629 5630 5630 5631 5631 5632 5633 5634 5635 5636 5637
5599 5600 5599 5601 5603 5603 5603 5604 5604 5605 5607 5608 5607 5608 5608 5609 5610 5611 5612 5612 5612 5613 5613 5613 5614 5614 5614 5614 5615 5615 5615 5616 5616 5616 5617 5617 5618 5619 5619 5620 5621 5622 5623 5624
5587 5588 5586 5589 5592 5592 5592 5593 5593 5593 5597 5596 5596 5596 5596 5597 5598 5598 5599 5599 5600 5600 5601 5601 5601 5600 5600 5600 5600 5601 5602 5602 5603 5603 5603 5604 5604 5605 5606 5607 5608 5609 5609 5610
5572 5575 5574 5581 5579 5579 5579 5580 5580 5581 5582 5583 5582 5583 5583 5584 5585 5585 5586 5586 5587 5587 5588 5588 5588 5587 5587 5587 5587 5587 5587 5588 5588 5589 5590 5590 5591 5592 5593 5593 5594 5595 5596 5596
5559 5559 5561 5566 5566 5566 5566 5567 5568 5568 5569 5569 5569 5570 5571 5571 5571 5572 5572 5573 5573 5574 5574 5574 5574 5574 5573 5573 5573 5573 5573 5573 5573 5574 5575 5576 5576 5577 5578 5579 5580 5580 5581 5582
5547 5547 5549 5554 5553 5553 5553 5554 5555 5555 5555 5555 5555 5556 5558 5557 5558 5558 5558 5559 5560 5560 5560 5560 5560 5559 5559 5559 5559 5559 5558 5558 5559 5559 5560 5561 5561 5562 5562 5563 5564 5565 5566 5566
5535 5534 5536 5540 5539 5539 5541 5542 5541 5541 5541 5542 5542 5543 5544 5544 5544 5544 5545 5545 5545 5546 5546 5546 5546 5545 5545 5545 5544 5544 5544 5544 5544 5544 5545 5545 5546 5547 5547 5548 5549 5550 5551 5551
5522 5522 5526 5526 5526 5527 5527 5526 5527 5527 5527 5528 5528 5528 5529 5530 5530 5531 5531 5531 5531 5531 5532 5532 5531 5531 5530 5530 5529 5529 5529 5529 5529 5530 5530 5530 5531 5531 5531 5532 5533 5533 5534 5535
5511 5513 5513 5513 5513 5513 5513 5513 5513 5513 5514 5514 5514 5515 5515 5516 5516 5517 5517 5517 5517 5517 5517 5517 5517 5516 5516 5515 5514 5514 5514 5514 5514 5514 5515 5515 5515 5515 5516 5516 5516 5517 5518 5518
5497 5498 5499 5500 5500 5501 5501 5500 5500 5501 5501 5500 5500 5500 5501 5501 5502 5502 5502 5503 5502 5502 5502 5502 5502 5501 5501 5500 5499 5499 5499 5499 5499 5499 5500 5500 5500 5500 5500 5500 5500 5501 5501 5501
5484 5486 5486 5487 5488 5488 5488 5488 5488 5488 5488 5487 5487 5487 5487 5487 5488 5488 5488 5488 5488 5488 5488 5488 5487 5487 5486 5485 5485 5484 5484 5484 5484 5485 5485 5485 5485 5485 5485 5485 5484 5484 5485 5484
5474 5474 5475 5475 5476 5476 5476 5476 5475 5475 5475 5475 5474 5474 5474 5474 5474 5474 5474 5474 5474 5474 5474 5473 5473 5472 5472 5471 5470 5470 5470 5470 5470 5470 5470 5470 5470 5470 5470 5469 5469 5468 5468 5468
5462 5462 5463 5463 5464 5464 5463 5463 5463 5463 5462 5462 5461 5461 5461 5461 5461 5461 5461 5461 5460 5460 5459 5459 5459 5458 5457 5457 5456 5455 5456 5456 5456 5456 5456 5456 5456 5455 5456 5456 5454 5453 5452 5452
5451 5451 5452 5452 5452 5452 5452 5452 5451 5451 5450 5449 5448 5448 5448 5448 5448 5448 5448 5448 5447 5447 5446 5446 5445 5445 5444 5443 5442 5442 5442 5442 5442 5442 5442 5442 5441 5441 5440 5440 5441 5440 5438 5437
5440 5440 5441 5441 5441 5441 5440 5440 5440 5439 5438 5437 5436 5435 5435 5434 5435 5435 5435 5435 5434 5434 5434 5433 5433 5432 5431 5430 5430 5430 5429 5429 5429 5429 5428 5428 5427 5426 5426 5425 5425 5425 5424 5423
5429 5430 5430 5430 5430 5429 5429 5428 5428 5427 5426 5425 5424 5423 5422 5421 5421 5422 5422 5422 5422 5422 5421 5421 5421 5420 5419 5418 5418 5417 5417 5417 5416 5415 5415 5414 5413 5412 5412 5411 5410 5410 5410 5409
5420 5420 5419 5419 5419 5418 5418 5417 5416 5415 5414 5413 5411 5410 5410 5409 5409 5409 5409 5409 5409 5410 5409 5409 5409 5408 5407 5406 5405 5405 5405 5404 5403 5403 5402 5401 5400 5399 5398 5397 5397 5396 5396 5395
5410 5410 5409 5408 5408 5407 5406 5405 5404 5403 5401 5400 5399 5398 5398 5397 5397 5397 5397 5397 5398 5398 5398 5397 5396 5396 5395 5394 5393 5393 5392 5392 5391 5390 5389 5388 5387 5387 5386 5384 5383 5383 5382 5381
5400 5400 5399 5398 5397 5396 5395 5394 5393 5391 5390 5389 5388 5387 5386 5386 5385 5385 5385 5385 5386 5386 5386 5385 5384 5384 5384 5383 5382 5381 5380 5380 5379 5378 5377 5376 5375 5374 5373 5372 5371 5370 5370 5369
5390 5390 5389 5388 5387 5386 5385 5384 5383 5381 5380 5379 5377 5376 5376 5375 5374 5374 5374 5374 5375 5374 5374 5374 5373 5373 5372 5371 5370 5369 5368 5368 5367 5366 5365 5364 5363 5362 5361 5360 5359 5358 5358 5357
5380 5380 5379 5378 5377 5377 5375 5374 5373 5372 5370 5369 5368 5367 5366 5365 5365 5364 5363 5364 5365 5363 5362 5362 5362 5361 5360 5360 5359 5358 5357 5356 5355 5355 5354 5353 5352 5351 5350 5349 5348 5348 5347 5346
5371 5370 5369 5368 5368 5367 5366 5365 5363 5362 5361 5359 5358 5357 5356 5355 5355 5354 5353 5353 5353 5352 5351 5351 5351 5350 5349 5348 5347 5346 5345 5345 5344 5344 5343 5342 5341 5340 5339 5338 5338 5337 5336 5335
5362 5361 5360 5359 5358 5358 5357 5355 5353 5352 5351 5350 5349 5347 5346 5345 5344 5344 5344 5344 5342 5342 5341 5341 5340 5339 5338 5337 5336 5336 5335 5334 5334 5333 5332 5332 5331 5330 5329 5329 5328 5327 5326 5325
5353 5352 5351 5350 5349 5348 5347 5346 5344 5343 5341 5340 5339 5338 5337 5336 5335 5334 5334 5334 5333 5332 5332 5331 5330 5329 5328 5327 5327 5326 5325 5325 5324 5323 5322 5322 5321 5320 5320 5319 5318 5317 5316 5316
5344 5343 5342 5341 5340 5338 5337 5336 5335 5334 5333 5332 5331 5329 5328 5327 5326 5326 5325 5325 5324 5323 5323 5322 5321 5320 5319 5319 5318 5317 5316 5315 5315 5314 5313 5313 5312 5311 5310 5310 5309 5308 5308 5307
5335 5334 5333 5332 5330 5329 5328 5327 5326 5325 5324 5323 5323 5321 5320 5319 5318 5317 5317 5316 5316 5315 5314 5314 5313 5312 5311 5311 5310 5309 5308 5307 5307 5306 5305 5304 5304 5303 5302 5301 5301 5300 5300 5299
5327 5326 5325 5324 5322 5321 5319 5318 5318 5317 5316 5315 5314 5313 5312 5311 5311 5310 5309 5308 5308 5307 5306 5306 5305 5304 5304 5303 5303 5302 5301 5300 5300 5299 5298 5297 5297 5296 5295 5294 5294 5293 5293 5292